Location: Gamarra
(10.0780°N, 67.4929°W)
Time: 06:06:42
(UTC+00:00)

H-2A R/B - Visible Passes

Search period start: 16 July 2024 00:00
Search period end: 26 July 2024 00:00
Orbit: 254 x 31739 km, 28.1° (Epoch: 15 July)

Date Brightness Start Highest point End Pass type
(mag) Time Alt. Az. Time Alt. Az. Time Alt. Az.
16 Jul 5.8 09:07:56 11° SW 12:12:52 45° SW 17:27:34 10° NE visible
17 Jul 7.8 03:38:28 13° SE 03:38:28 13° SE 11:28:29 10° E visible
18 Jul 6.8 07:24:10 29° SSW 15:11:19 85° NW 15:38:23 10° ENE visible
20 Jul 7.5 05:40:11 32° SSE 05:44:44 32° SSE 13:46:54 10° ENE visible
20 Jul 0.7 23:25:49 10° NW 23:27:31 41° NNE 23:29:58 11° ESE visible
21 Jul 5.6 09:28:59 10° SW 12:08:10 40° SW 17:44:24 10° NE visible
22 Jul 7.8 03:55:59 17° SE 03:55:59 17° SE 11:50:07 10° ENE visible
23 Jul 6.5 07:41:23 26° SSW 12:16:09 57° SW 15:55:01 10° NE visible
24 Jul 10.3 06:42:54 10° ESE 08:33:45 18° E 09:32:39 10° E visible
25 Jul 7.5 05:56:50 33° S 13:10:48 81° SE 14:03:46 10° ENE visible
25 Jul 0.7 23:41:29 10° WNW 23:43:18 56° SSW 23:45:35 18° SE visible
